,,Stat6,,Stat2,,Stat8,,Stat9,,Stat10,,Wind1,,Wind1,
time,status,PA1M_AVG,status,PR1M_SUM,status,RH1M_AVG,status,SR1M_AVG,status,TA1M_AVG,status,W1dAve1m,status,W1sAve1m,
2006-04-27, 00:00:01,VALID,919.15,VALID,0,VALID,100,VALID,-0.288674,VALID,20.6772,VALID,284,VALID,0.089939,
2006-04-27, 00:01:00,VALID,919.136,VALID,0,VALID,100,VALID,-0.220751,VALID,19.4878,VALID,288,VALID,0.0612282,
2006-04-27, 00:02:01,VALID,919.113,VALID,0,VALID,100,VALID,-0.220751,VALID,20.518,VALID,346,VALID,0.505757,
2006-04-27, 00:03:00,VALID,919.099,VALID,0,VALID,100,VALID,-0.305655,VALID,19.2848,VALID,8,VALID,0.297805,
2006-04-27, 00:04:01,VALID,919.085,VALID,0,VALID,100,VALID,-0.322636,VALID,20.6581,VALID,9,VALID,0,
2006-04-27, 00:05:00,VALID,919.086,VALID,0,VALID,100,VALID,-0.288674,VALID,20.4727,VALID,9,VALID,0.156795,
2006-04-27, 00:06:00,VALID,919.079,VALID,0,VALID,100,VALID,-0.254712,VALID,19.6889,VALID,9,VALID,0.0528706,
2006-04-27, 00:07:01,VALID,919.08,VALID,0,VALID,100,VALID,-0.305655,VALID,20.5497,VALID,9,VALID,0,
2006-04-27, 00:08:00,VALID,919.068,VALID,0,VALID,100,VALID,-0.339617,VALID,20.0819,VALID,9,VALID,0.00104167,
2006-04-27, 00:09:00,VALID,919.066,VALID,0,VALID,100,VALID,-0.339617,VALID,20.2894,VALID,9,VALID,0,
2006-04-27, 00:10:00,VALID,919.057,VALID,0,VALID,100,VALID,-0.305655,VALID,21.324,VALID,12,VALID,0.257086,
2006-04-27, 00:11:01,VALID,919.032,VALID,0,VALID,100,VALID,-0.305655,VALID,20.0347,VALID,23,VALID,0.404474,
2006-04-27, 00:12:01,VALID,919.019,VALID,0,VALID,100,VALID,-0.322636,VALID,19.4896,VALID,23,VALID,0.325781,
2006-04-27, 00:13:00,VALID,919.004,VALID,0,VALID,100,VALID,-0.785532,VALID,20.6869,VALID,23,VALID,0.404652,
2006-04-27, 00:14:00,VALID,919.004,VALID,0,VALID,100,VALID,-0.305655,VALID,20.5956,VALID,24,VALID,0.528516,
2006-04-27, 00:15:00,VALID,919.004,VALID,0,VALID,100,VALID,-0.322636,VALID,19.9511,VALID,24,VALID,0.730556,
2006-04-27, 00:16:01,VALID,918.996,VALID,0,VALID,100,VALID,-0.305655,VALID,19.547,VALID,24,VALID,0.69308,
2006-04-27, 00:17:01,VALID,918.987,VALID,0,VALID,100,VALID,-0.322636,VALID,21.0808,VALID,24,VALID,0.444602,
2006-04-27, 00:18:01,VALID,918.985,VALID,0,VALID,100,VALID,-0.305655,VALID,19.6341,VALID,24,VALID,0.551389,
2006-04-27, 00:19:00,VALID,918.959,VALID,0,VALID,100,VALID,-0.322636,VALID,19.517,VALID,24,VALID,0.345084,
2006-04-27, 00:20:00,VALID,918.955,VALID,0,VALID,100,VALID,-0.305655,VALID,20.1036,VALID,24,VALID,0.470424,
2006-04-27, 00:21:00,VALID,918.951,VALID,0,VALID,100,VALID,-0.305655,VALID,20.0083,VALID,25,VALID,0.306734,
2006-04-27, 00:22:01,VALID,918.948,VALID,0,VALID,100,VALID,-0.305655,VALID,19.7724,VALID,25,VALID,0.573686,
2006-04-27, 00:23:00,VALID,918.947,VALID,0,VALID,100,VALID,-0.322636,VALID,20.6049,VALID,25,VALID,0.459821,
2006-04-27, 00:24:01,VALID,918.95,VALID,0,VALID,100,VALID,-0.305655,VALID,19.6187,VALID,25,VALID,0.548828,
2006-04-27, 00:25:00,VALID,918.962,VALID,0,VALID,100,VALID,-0.322636,VALID,20.4119,VALID,25,VALID,0.575391,
2006-04-27, 00:26:01,VALID,918.958,VALID,0,VALID,100,VALID,-0.356597,VALID,19.8658,VALID,25,VALID,0.342478,
2006-04-27, 00:27:00,VALID,918.966,VALID,0,VALID,100,VALID,-0.322636,VALID,20.4822,VALID,25,VALID,0.102628,
2006-04-27, 00:28:00,VALID,918.955,VALID,0,VALID,100,VALID,-0.373578,VALID,19.6175,VALID,25,VALID,0.0926339,
2006-04-27, 00:29:00,VALID,918.956,VALID,0,VALID,100,VALID,-0.305655,VALID,20.1933,VALID,25,VALID,0,
2006-04-27, 00:30:00,VALID,918.942,VALID,0,VALID,100,VALID,-0.356597,VALID,19.9783,VALID,25,VALID,0.0881177,
2006-04-27, 00:31:01,VALID,918.939,VALID,0,VALID,100,VALID,-0.271693,VALID,19.2764,VALID,40,VALID,0.316134,
2006-04-27, 00:32:00,VALID,918.939,VALID,0,VALID,100,VALID,-0.305655,VALID,19.2283,VALID,102,VALID,0.230469,
2006-04-27, 00:33:01,VALID,918.929,VALID,0,VALID,100,VALID,-0.305655,VALID,21.033,VALID,138,VALID,0.438802,
2006-04-27, 00:34:00,VALID,918.924,VALID,0,VALID,100,VALID,-0.305655,VALID,19.6902,VALID,140,VALID,0.624306,
2006-04-27, 00:35:00,VALID,918.918,VALID,0,VALID,100,VALID,-0.322636,VALID,19.657,VALID,140,VALID,0.57832,
2006-04-27, 00:36:00,VALID,918.906,VALID,0,VALID,100,VALID,-0.339617,VALID,18.3358,VALID,139,VALID,0.69455,
2006-04-27, 00:37:00,VALID,918.899,VALID,0,VALID,100,VALID,-0.305655,VALID,20.2101,VALID,129,VALID,0.490734,
2006-04-27, 00:38:00,VALID,918.894,VALID,0,VALID,100,VALID,-0.339617,VALID,19.5163,VALID,115,VALID,0.758371,
2006-04-27, 00:39:00,VALID,918.881,VALID,0,VALID,100,VALID,-0.305655,VALID,18.9367,VALID,115,VALID,0.598837,
2006-04-27, 00:40:00,VALID,918.872,VALID,0,VALID,100,VALID,-0.254712,VALID,19.8265,VALID,94,VALID,0.742369,
2006-04-27, 00:41:00,VALID,918.862,VALID,0,VALID,100,VALID,-0.322636,VALID,19.2229,VALID,91,VALID,0.779797,
2006-04-27, 00:42:00,VALID,918.846,VALID,0,VALID,100,VALID,-0.322636,VALID,19.2121,VALID,95,VALID,0.823361,
2006-04-27, 00:43:00,VALID,918.823,VALID,0,VALID,100,VALID,-0.554084,VALID,20.3237,VALID,103,VALID,0.818892,
2006-04-27, 00:44:01,VALID,918.812,VALID,0,VALID,100,VALID,-1,VALID,19.7881,VALID,119,VALID,1,
2006-04-27, 00:45:00,VALID,918.806,VALID,0,VALID,100,VALID,-1,VALID,19.9417,VALID,123,VALID,1.23075,
2006-04-27, 00:46:00,VALID,918.811,VALID,0,VALID,100,VALID,-1,VALID,20.1581,VALID,123,VALID,1.40365,
2006-04-27, 00:47:01,VALID,918.406,VALID,0,VALID,100,VALID,-1,VALID,20.0573,VALID,119,VALID,1.37145,
2006-04-27, 00:48:00,VALID,918.836,VALID,0,VALID,100,VALID,-1,VALID,19.4867,VALID,114,VALID,1.27191,
2006-04-27, 00:49:01,VALID,918.862,VALID,0,VALID,100,VALID,-1,VALID,19.8955,VALID,112,VALID,1.13672,
2006-04-27, 00:50:00,VALID,918.879,VALID,0,VALID,100,VALID,-0.884276,VALID,19.2606,VALID,112,VALID,1.21979,
2006-04-27, 00:51:00,VALID,918.897,VALID,0,VALID,100,VALID,-0.356597,VALID,19.209,VALID,119,VALID,1.26914,
2006-04-27, 00:52:01,VALID,918.906,VALID,0,VALID,100,VALID,-0.339617,VALID,19.3208,VALID,122,VALID,1.43426,
2006-04-27, 00:53:00,VALID,918.901,VALID,0,VALID,100,VALID,-0.339617,VALID,20.3975,VALID,116,VALID,1.52195,
2006-04-27, 00:54:00,VALID,918.894,VALID,0,VALID,100,VALID,-0.356597,VALID,18.808,VALID,117,VALID,1.367,
2006-04-27, 00:55:01,VALID,918.905,VALID,0,VALID,100,VALID,-0.220751,VALID,19.3088,VALID,122,VALID,1.01108,
2006-04-27, 00:56:00,VALID,918.888,VALID,0,VALID,100,VALID,-0.237732,VALID,19.8303,VALID,124,VALID,0.922066,
2006-04-27, 00:57:01,VALID,918.885,VALID,0,VALID,100,VALID,-0.220751,VALID,19.8415,VALID,122,VALID,1.50337,
2006-04-27, 00:58:00,VALID,918.893,VALID,0,VALID,100,VALID,-0.254712,VALID,18.9997,VALID,121,VALID,1.07489,
2006-04-27, 00:59:00,VALID,918.903,VALID,0,VALID,100,VALID,-0.305655,VALID,20.9681,VALID,133,VALID,0.829078,
2006-04-27, 01:00:01,VALID,918.914,VALID,0,VALID,100,VALID,-0.237732,VALID,19.5443,VALID,122,VALID,0.482851,
2006-04-27, 01:01:01,VALID,918.922,VALID,0,VALID,100,VALID,-0.254712,VALID,19.1619,VALID,127,VALID,0.619141,
2006-04-27, 01:02:00,VALID,918.913,VALID,0,VALID,100,VALID,-0.237732,VALID,19.4224,VALID,137,VALID,1.02118,
2006-04-27, 01:03:00,VALID,918.897,VALID,0,VALID,100,VALID,-0.20377,VALID,19.6056,VALID,136,VALID,0.957698,
2006-04-27, 01:04:00,VALID,918.887,VALID,0,VALID,100,VALID,-0.220751,VALID,19.6501,VALID,137,VALID,0.803385,
2006-04-27, 01:05:00,VALID,918.884,VALID,0,VALID,100,VALID,-0.237732,VALID,18.7723,VALID,149,VALID,0.980564,
2006-04-27, 01:06:00,VALID,918.883,VALID,0,VALID,100,VALID,-0.356597,VALID,20.7956,VALID,154,VALID,0.779119,
2006-04-27, 01:07:01,VALID,918.884,VALID,0,VALID,100,VALID,-0.373578,VALID,19.9529,VALID,152,VALID,0.840799,
2006-04-27, 01:08:00,VALID,918.879,VALID,0,VALID,100,VALID,-0.356597,VALID,20.349,VALID,152,VALID,0.48544,
2006-04-27, 01:09:00,VALID,918.889,VALID,0,VALID,100,VALID,-0.237732,VALID,18.8025,VALID,152,VALID,0.357376,
2006-04-27, 01:10:00,VALID,918.876,VALID,0,VALID,100,VALID,-0.254712,VALID,20.0236,VALID,152,VALID,0.25,
2006-04-27, 01:11:00,VALID,918.865,VALID,0,VALID,100,VALID,-0.237732,VALID,19.7705,VALID,145,VALID,0.414249,
2006-04-27, 01:12:00,VALID,918.857,VALID,0,VALID,100,VALID,-0.254712,VALID,19.7958,VALID,134,VALID,0.644717,
2006-04-27, 01:13:00,VALID,918.829,VALID,0,VALID,100,VALID,-0.237732,VALID,18.9725,VALID,127,VALID,0.763021,
2006-04-27, 01:14:00,VALID,918.816,VALID,0,VALID,100,VALID,-0.339617,VALID,18.7907,VALID,109,VALID,0.831659,
2006-04-27, 01:15:01,VALID,918.809,VALID,0,VALID,100,VALID,-0.322636,VALID,20.1647,VALID,106,VALID,0.986683,
2006-04-27, 01:16:00,VALID,918.776,VALID,0,VALID,100,VALID,-0.288674,VALID,20.0688,VALID,110,VALID,1.17696,
2006-04-27, 01:17:01,VALID,918.763,VALID,0,VALID,100,VALID,-0.339617,VALID,19.8354,VALID,111,VALID,1.22752,
2006-04-27, 01:18:01,VALID,918.76,VALID,0,VALID,100,VALID,-0.305655,VALID,19.5633,VALID,109,VALID,1.15123,
2006-04-27, 01:19:00,VALID,918.743,VALID,0,VALID,100,VALID,-0.237732,VALID,19.4041,VALID,111,VALID,1.37555,
2006-04-27, 01:20:00,VALID,918.738,VALID,0,VALID,100,VALID,-0.288674,VALID,19.9831,VALID,107,VALID,1.29013,
2006-04-27, 01:21:01,VALID,918.74,VALID,0,VALID,100,VALID,-0.356597,VALID,19.9924,VALID,107,VALID,1.37695,
2006-04-27, 01:22:00,VALID,918.716,VALID,0,VALID,100,VALID,-0.390559,VALID,20.0608,VALID,97,VALID,1.54415,
2006-04-27, 01:23:01,VALID,918.71,VALID,0,VALID,100,VALID,-0.322636,VALID,19.7659,VALID,101,VALID,1.13826,
2006-04-27, 01:24:00,VALID,918.691,VALID,0,VALID,100,VALID,-0.339617,VALID,20.1121,VALID,113,VALID,1.13951,
2006-04-27, 01:25:01,VALID,918.676,VALID,0,VALID,100,VALID,-0.305655,VALID,18.998,VALID,116,VALID,1.27649,
2006-04-27, 01:26:01,VALID,918.646,VALID,0,VALID,100,VALID,-0.339617,VALID,19.9861,VALID,113,VALID,1.05156,
2006-04-27, 01:27:00,VALID,918.64,VALID,0,VALID,100,VALID,-0.305655,VALID,20.317,VALID,109,VALID,1.04211,
2006-04-27, 01:28:00,VALID,918.633,VALID,0,VALID,100,VALID,-0.237732,VALID,19.9555,VALID,109,VALID,0.942951,
2006-04-27, 01:29:01,VALID,918.624,VALID,0,VALID,100,VALID,-0.254712,VALID,20.6732,VALID,95,VALID,0.824886,
2006-04-27, 01:30:01,VALID,918.612,VALID,0,VALID,100,VALID,-0.339617,VALID,19.7393,VALID,96,VALID,0.390092,
2006-04-27, 01:31:00,VALID,918.595,VALID,0,VALID,100,VALID,-0.305655,VALID,20.4288,VALID,118,VALID,0.488368,
2006-04-27, 01:32:01,VALID,918.567,VALID,0,VALID,100,VALID,-0.305655,VALID,20.325,VALID,155,VALID,0.369792,
2006-04-27, 01:33:01,VALID,918.526,VALID,0,VALID,100,VALID,-0.322636,VALID,19.4653,VALID,146,VALID,0.612926,
2006-04-27, 01:34:00,VALID,918.49,VALID,0,VALID,100,VALID,-0.322636,VALID,20.524,VALID,142,VALID,0.791726,
2006-04-27, 01:35:00,VALID,918.448,VALID,0,VALID,100,VALID,-0.305655,VALID,19.9924,VALID,143,VALID,1.06771,
2006-04-27, 01:36:00,VALID,918.428,VALID,0,VALID,100,VALID,-0.254712,VALID,20.2834,VALID,142,VALID,0.991815,
2006-04-27, 01:37:01,VALID,918.401,VALID,0,VALID,100,VALID,-0.254712,VALID,20.1207,VALID,144,VALID,0.812872,
2006-04-27, 01:38:01,VALID,918.404,VALID,0,VALID,100,VALID,-0.373578,VALID,20.8551,VALID,149,VALID,0.829728,
2006-04-27, 01:39:00,VALID,918.384,VALID,0,VALID,100,VALID,-0.373578,VALID,19.8836,VALID,147,VALID,0.280692,
2006-04-27, 01:40:01,VALID,918.371,VALID,0,VALID,100,VALID,-0.237732,VALID,20.3448,VALID,147,VALID,0.429506,
2006-04-27, 01:41:01,VALID,918.353,VALID,0,VALID,100,VALID,-0.322636,VALID,17.9012,VALID,135,VALID,0.758539,
2006-04-27, 01:42:00,VALID,918.341,VALID,0,VALID,100,VALID,-0.356597,VALID,19.0262,VALID,122,VALID,0.850229,
2006-04-27, 01:43:01,VALID,918.31,VALID,0,VALID,100,VALID,-0.339617,VALID,20.491,VALID,103,VALID,0.784054,
2006-04-27, 01:44:00,VALID,918.273,VALID,0,VALID,100,VALID,-0.322636,VALID,19.7291,VALID,100,VALID,0.857701,
2006-04-27, 01:45:01,VALID,918.261,VALID,0,VALID,100,VALID,-0.356597,VALID,20.3517,VALID,113,VALID,0.908008,
2006-04-27, 01:46:01,VALID,918.246,VALID,0,VALID,100,VALID,-0.322636,VALID,18.4794,VALID,118,VALID,0.905297,
2006-04-27, 01:47:01,VALID,918.244,VALID,0,VALID,100,VALID,-0.271693,VALID,18.1858,VALID,125,VALID,0.792535,
2006-04-27, 01:48:01,VALID,918.235,VALID,0,VALID,100,VALID,-0.237732,VALID,19.5321,VALID,128,VALID,0.730741,
2006-04-27, 01:49:01,VALID,918.213,VALID,0,VALID,100,VALID,-0.237732,VALID,19.7947,VALID,120,VALID,1.04097,
2006-04-27, 01:50:01,VALID,918.214,VALID,0,VALID,100,VALID,-0.237732,VALID,19.538,VALID,114,VALID,1.04781,
2006-04-27, 01:51:01,VALID,918.218,VALID,0,VALID,100,VALID,-0.20377,VALID,19.8318,VALID,104,VALID,0.762091,
2006-04-27, 01:52:01,VALID,918.208,VALID,0,VALID,100,VALID,-0.220751,VALID,19.6355,VALID,113,VALID,0.996185,
2006-04-27, 01:53:01,VALID,918.207,VALID,0,VALID,100,VALID,-0.237732,VALID,19.3809,VALID,126,VALID,1.06726,
2006-04-27, 01:54:01,VALID,918.208,VALID,0,VALID,100,VALID,-0.220751,VALID,19.4462,VALID,127,VALID,0.93532,
2006-04-27, 01:55:01,VALID,918.2,VALID,0,VALID,100,VALID,-0.373578,VALID,20.0575,VALID,128,VALID,1.10781,
2006-04-27, 01:56:01,VALID,918.174,VALID,0,VALID,100,VALID,-0.356597,VALID,18.9214,VALID,122,VALID,1.02158,
2006-04-27, 01:57:01,VALID,918.156,VALID,0,VALID,100,VALID,-0.305655,VALID,20.6539,VALID,108,VALID,1.13974,
2006-04-27, 01:58:01,VALID,918.141,VALID,0,VALID,100,VALID,-0.339617,VALID,18.8569,VALID,89,VALID,0.920015,
2006-04-27, 01:59:01,VALID,918.135,VALID,0,VALID,100,VALID,-0.220751,VALID,19.3014,VALID,80,VALID,1.06709,
2006-04-27, 02:00:01,VALID,918.144,VALID,0,VALID,100,VALID,-0.322636,VALID,19.8852,VALID,63,VALID,1.21745,
2006-04-27, 02:01:01,VALID,918.136,VALID,0,VALID,100,VALID,-0.339617,VALID,19.4146,VALID,61,VALID,1.0332,
2006-04-27, 02:02:01,VALID,918.138,VALID,0,VALID,100,VALID,-0.322636,VALID,21.4929,VALID,68,VALID,1.16461,
2006-04-27, 02:03:01,VALID,918.14,VALID,0,VALID,100,VALID,-0.305655,VALID,20.9922,VALID,65,VALID,1.14902,
2006-04-27, 02:04:01,VALID,918.134,VALID,0,VALID,100,VALID,-0.322636,VALID,21.5837,VALID,76,VALID,1.04033,
2006-04-27, 02:05:01,VALID,918.131,VALID,0,VALID,100,VALID,-0.356597,VALID,20.5336,VALID,79,VALID,0.856357,
2006-04-27, 02:06:01,VALID,918.13,VALID,0,VALID,100,VALID,-0.237732,VALID,19.7876,VALID,95,VALID,0.652716,
2006-04-27, 02:07:01,VALID,918.121,VALID,0,VALID,100,VALID,-0.254712,VALID,20.2083,VALID,121,VALID,0.921689,
2006-04-27, 02:08:01,VALID,918.116,VALID,0,VALID,100,VALID,-0.237732,VALID,20.1751,VALID,123,VALID,1.07831,
2006-04-27, 02:09:01,VALID,918.087,VALID,0,VALID,100,VALID,-0.237732,VALID,21.0445,VALID,124,VALID,1.04833,
2006-04-27, 02:10:00,VALID,918.063,VALID,0,VALID,100,VALID,-0.237732,VALID,19.7087,VALID,124,VALID,1.28997,
2006-04-27, 02:11:00,VALID,918.054,VALID,0,VALID,100,VALID,-0.271693,VALID,21.2138,VALID,117,VALID,1.13132,
2006-04-27, 02:12:00,VALID,918.039,VALID,0,VALID,100,VALID,-0.271693,VALID,19.6198,VALID,109,VALID,1.28533,
2006-04-27, 02:13:00,VALID,918.032,VALID,0,VALID,100,VALID,-0.339617,VALID,20.4983,VALID,113,VALID,1.28411,
2006-04-27, 02:14:00,VALID,918.029,VALID,0,VALID,100,VALID,-0.390559,VALID,19.4415,VALID,115,VALID,1.68655,
2006-04-27, 02:15:00,VALID,918.022,VALID,0,VALID,100,VALID,-0.271693,VALID,19.4651,VALID,124,VALID,1.74867,
2006-04-27, 02:16:00,VALID,918.011,VALID,0,VALID,100,VALID,-0.288674,VALID,19.0336,VALID,127,VALID,1.55246,
2006-04-27, 02:17:00,VALID,918.024,VALID,0,VALID,100,VALID,-0.237732,VALID,20.0757,VALID,132,VALID,1.40394,
2006-04-27, 02:18:00,VALID,918.021,VALID,0,VALID,100,VALID,-0.20377,VALID,20.38,VALID,138,VALID,1.59756,
2006-04-27, 02:19:00,VALID,918.036,VALID,0,VALID,100,VALID,-0.254712,VALID,19.4403,VALID,148,VALID,1.31854,
2006-04-27, 02:20:00,VALID,918.039,VALID,0,VALID,100,VALID,-0.322636,VALID,19.7003,VALID,146,VALID,1.56534,
2006-04-27, 02:21:00,VALID,918.031,VALID,0,VALID,100,VALID,-0.305655,VALID,18.3048,VALID,139,VALID,1.56911,
2006-04-27, 02:22:00,VALID,918.012,VALID,0,VALID,100,VALID,-0.322636,VALID,19.0551,VALID,142,VALID,1.96131,
2006-04-27, 02:23:00,VALID,918.014,VALID,0,VALID,100,VALID,-0.322636,VALID,19.0808,VALID,145,VALID,1.50558,
2006-04-27, 02:24:00,VALID,918.014,VALID,0,VALID,100,VALID,-0.322636,VALID,18.9134,VALID,136,VALID,1.62318,
2006-04-27, 02:25:00,VALID,918.013,VALID,0,VALID,100,VALID,-0.305655,VALID,21.619,VALID,138,VALID,1.57203,
2006-04-27, 02:26:00,VALID,918.018,VALID,0,VALID,100,VALID,-0.305655,VALID,20.4991,VALID,140,VALID,1.86137,
2006-04-27, 02:27:00,VALID,918.023,VALID,0,VALID,100,VALID,-0.305655,VALID,19.7064,VALID,133,VALID,1.75454,
2006-04-27, 02:28:00,VALID,918.02,VALID,0,VALID,100,VALID,-0.305655,VALID,19.2003,VALID,140,VALID,2.07222,
2006-04-27, 02:29:00,VALID,918.008,VALID,0,VALID,100,VALID,-0.20377,VALID,19.3503,VALID,148,VALID,1.5712,
2006-04-27, 02:30:00,VALID,917.976,VALID,0,VALID,100,VALID,-0.254712,VALID,18.5029,VALID,138,VALID,2.34356,
2006-04-27, 02:31:00,VALID,917.974,VALID,0,VALID,100,VALID,-0.356597,VALID,19.1778,VALID,147,VALID,2.28162,
2006-04-27, 02:32:00,VALID,917.956,VALID,0,VALID,100,VALID,-0.254712,VALID,19.7065,VALID,141,VALID,1.63772,
2006-04-27, 02:33:00,VALID,917.931,VALID,0,VALID,100,VALID,-0.271693,VALID,19.9981,VALID,138,VALID,1.20846,
2006-04-27, 02:34:00,VALID,917.909,VALID,0,VALID,100,VALID,-0.271693,VALID,19.3882,VALID,137,VALID,1.81864,
2006-04-27, 02:35:00,VALID,917.883,VALID,0,VALID,100,VALID,-0.305655,VALID,19.2803,VALID,142,VALID,2.0923,
2006-04-27, 02:36:00,VALID,917.882,VALID,0,VALID,100,VALID,-0.356597,VALID,21.149,VALID,149,VALID,2.50482,
2006-04-27, 02:37:00,VALID,917.867,VALID,0,VALID,100,VALID,-0.322636,VALID,20.0909,VALID,144,VALID,2.3016,
2006-04-27, 02:38:00,VALID,917.88,VALID,0,VALID,100,VALID,-0.288674,VALID,20.5902,VALID,155,VALID,1.66044,
2006-04-27, 02:39:00,VALID,917.877,VALID,0,VALID,100,VALID,-0.339617,VALID,20.4184,VALID,148,VALID,1.51527,
2006-04-27, 02:40:00,VALID,917.868,VALID,0,VALID,100,VALID,-0.356597,VALID,19.5467,VALID,151,VALID,1.83594,
2006-04-27, 02:41:00,VALID,917.847,VALID,0,VALID,100,VALID,-0.339617,VALID,19.2834,VALID,126,VALID,1.65225,
2006-04-27, 02:42:00,VALID,917.845,VALID,0,VALID,99.9952,VALID,-0.322636,VALID,20.0526,VALID,130,VALID,1.57546,
2006-04-27, 02:43:00,VALID,917.83,VALID,0,VALID,99.8553,VALID,-0.339617,VALID,19.8196,VALID,137,VALID,2.10271,
2006-04-27, 02:44:00,VALID,917.836,VALID,0,VALID,99.6976,VALID,-0.373578,VALID,19.3643,VALID,126,VALID,1.879,
2006-04-27, 02:45:00,VALID,917.829,VALID,0,VALID,99.5743,VALID,-0.322636,VALID,20.0324,VALID,131,VALID,1.89882,
2006-04-27, 02:46:00,VALID,917.815,VALID,0,VALID,99.409,VALID,-0.288674,VALID,19.2488,VALID,131,VALID,1.67357,
2006-04-27, 02:47:00,VALID,917.79,VALID,0,VALID,99.3377,VALID,-0.254712,VALID,19.1041,VALID,139,VALID,1.28766,
2006-04-27, 02:48:00,VALID,917.761,VALID,0,VALID,99.3416,VALID,-0.237732,VALID,19.9938,VALID,133,VALID,1.71912,
2006-04-27, 02:49:00,VALID,917.732,VALID,0,VALID,99.2805,VALID,-0.288674,VALID,19.4829,VALID,117,VALID,1.18441,
2006-04-27, 02:50:00,VALID,917.718,VALID,0,VALID,99.222,VALID,-0.220751,VALID,19.9122,VALID,124,VALID,1.65518,
2006-04-27, 02:51:00,VALID,917.711,VALID,0,VALID,99.2398,VALID,-0.288674,VALID,20.0029,VALID,127,VALID,1.05191,
2006-04-27, 02:52:00,VALID,917.698,VALID,0,VALID,99.2398,VALID,-0.288674,VALID,19.8072,VALID,123,VALID,1.1955,
2006-04-27, 02:53:00,VALID,917.686,VALID,0,VALID,99.2691,VALID,-0.271693,VALID,20.7243,VALID,121,VALID,1.40816,
2006-04-27, 02:54:00,VALID,917.679,VALID,0,VALID,99.2589,VALID,-0.288674,VALID,20.369,VALID,133,VALID,1.59211,
2006-04-27, 02:55:00,VALID,917.663,VALID,0,VALID,99.2246,VALID,-0.271693,VALID,19.5714,VALID,129,VALID,1.10899,
2006-04-27, 02:56:00,VALID,917.67,VALID,0,VALID,99.2513,VALID,-0.271693,VALID,19.6005,VALID,114,VALID,1.46584,
2006-04-27, 02:57:00,VALID,917.663,VALID,0,VALID,99.2653,VALID,-0.305655,VALID,19.7576,VALID,129,VALID,1.35004,
2006-04-27, 02:58:00,VALID,917.654,VALID,0,VALID,99.2932,VALID,-0.271693,VALID,19.3952,VALID,124,VALID,1.41715,
2006-04-27, 02:59:00,VALID,917.644,VALID,0,VALID,99.3327,VALID,-0.305655,VALID,20.2786,VALID,119,VALID,1.06992,
2006-04-27, 03:00:00,VALID,917.619,VALID,0,VALID,99.3886,VALID,-0.288674,VALID,19.8241,VALID,120,VALID,1.43981,
2006-04-27, 03:01:00,VALID,917.598,VALID,0,VALID,99.409,VALID,-1,VALID,19.4977,VALID,130,VALID,1.71205,
2006-04-27, 03:02:00,VALID,917.572,VALID,0,VALID,99.4191,VALID,-0.901257,VALID,20.0501,VALID,133,VALID,1.54033,
2006-04-27, 03:03:00,VALID,917.544,VALID,0,VALID,99.4115,VALID,-0.373578,VALID,20.1756,VALID,130,VALID,1.46768,
2006-04-27, 03:04:00,VALID,917.527,VALID,0,VALID,99.4573,VALID,-0.220751,VALID,20.3371,VALID,119,VALID,1.19993,
2006-04-27, 03:05:00,VALID,917.5,VALID,0,VALID,99.5158,VALID,-0.288674,VALID,19.7185,VALID,127,VALID,1.28452,
2006-04-27, 03:06:00,VALID,917.503,VALID,0,VALID,99.6137,VALID,-0.305655,VALID,19.5139,VALID,134,VALID,1.09375,
2006-04-27, 03:07:00,VALID,917.486,VALID,0,VALID,99.7052,VALID,-0.373578,VALID,19.1687,VALID,130,VALID,1.62074,
2006-04-27, 03:08:00,VALID,917.493,VALID,0,VALID,99.7561,VALID,-0.322636,VALID,19.7231,VALID,108,VALID,0.853966,
2006-04-27, 03:09:00,VALID,917.495,VALID,0,VALID,99.7739,VALID,-0.288674,VALID,19.1059,VALID,114,VALID,1.18788,
2006-04-27, 03:10:00,VALID,917.487,VALID,0,VALID,99.8388,VALID,-0.237732,VALID,18.692,VALID,118,VALID,1.18118,
2006-04-27, 03:11:00,VALID,917.485,VALID,0,VALID,99.9112,VALID,-0.305655,VALID,19.9442,VALID,119,VALID,1.11433,
2006-04-27, 03:12:00,VALID,917.482,VALID,0,VALID,99.9929,VALID,-0.220751,VALID,19.1757,VALID,132,VALID,1.12873,
2006-04-27, 03:13:00,VALID,917.467,VALID,0,VALID,100,VALID,-0.288674,VALID,19.4912,VALID,128,VALID,0.857701,
2006-04-27, 03:14:00,VALID,917.451,VALID,0,VALID,100,VALID,-0.271693,VALID,19.9773,VALID,132,VALID,0.882465,
2006-04-27, 03:15:00,VALID,917.435,VALID,0,VALID,100,VALID,-0.271693,VALID,19.3371,VALID,142,VALID,0.636632,
2006-04-27, 03:16:00,VALID,917.416,VALID,0,VALID,100,VALID,-0.288674,VALID,19.613,VALID,134,VALID,1.11585,
2006-04-27, 03:17:00,VALID,917.4,VALID,0,VALID,100,VALID,-0.288674,VALID,19.7722,VALID,136,VALID,0.897372,
2006-04-27, 03:18:00,VALID,917.385,VALID,0,VALID,100,VALID,-0.305655,VALID,19.2746,VALID,137,VALID,0.793857,
2006-04-27, 03:19:00,VALID,917.374,VALID,0,VALID,100,VALID,-0.322636,VALID,20.5987,VALID,136,VALID,1.15272,
2006-04-27, 03:20:00,VALID,917.363,VALID,0,VALID,100,VALID,-0.373578,VALID,18.3582,VALID,136,VALID,1.17151,
2006-04-27, 03:21:00,VALID,917.346,VALID,0,VALID,100,VALID,-0.322636,VALID,19.9518,VALID,135,VALID,0.809261,
2006-04-27, 03:22:00,VALID,917.331,VALID,0,VALID,100,VALID,-0.373578,VALID,20.4014,VALID,132,VALID,0.811955,
2006-04-27, 03:23:00,VALID,917.321,VALID,0,VALID,100,VALID,-0.390559,VALID,18.751,VALID,123,VALID,0.974085,
2006-04-27, 03:24:00,VALID,917.306,VALID,0,VALID,100,VALID,-0.271693,VALID,19.3516,VALID,121,VALID,0.804688,
2006-04-27, 03:25:00,VALID,917.287,VALID,0,VALID,100,VALID,-0.305655,VALID,20.5308,VALID,110,VALID,1.03011,
2006-04-27, 03:26:00,VALID,917.288,VALID,0,VALID,100,VALID,-0.305655,VALID,20.2483,VALID,130,VALID,0.626143,
2006-04-27, 03:27:00,VALID,917.271,VALID,0,VALID,100,VALID,-0.288674,VALID,19.9686,VALID,129,VALID,0.641715,
2006-04-27, 03:28:00,VALID,917.243,VALID,0,VALID,100,VALID,-0.271693,VALID,18.3432,VALID,116,VALID,0.730129,
2006-04-27, 03:29:00,VALID,917.216,VALID,0,VALID,100,VALID,-0.305655,VALID,19.5594,VALID,126,VALID,0.773604,
2006-04-27, 03:30:00,VALID,917.205,VALID,0,VALID,100,VALID,-0.305655,VALID,19.221,VALID,124,VALID,0.91424,
2006-04-27, 03:31:00,VALID,917.171,VALID,0,VALID,100,VALID,-0.635847,VALID,19.5273,VALID,123,VALID,0.738467,
2006-04-27, 03:32:00,VALID,917.168,VALID,0,VALID,100,VALID,-1,VALID,19.1166,VALID,123,VALID,0.570313,
2006-04-27, 03:33:00,VALID,917.158,VALID,0,VALID,100,VALID,-0.884276,VALID,19.5396,VALID,122,VALID,0.833507,
2006-04-27, 03:34:00,VALID,917.167,VALID,0,VALID,100,VALID,-0.288674,VALID,19.1744,VALID,119,VALID,0.704268,
2006-04-27, 03:35:00,VALID,917.18,VALID,0,VALID,100,VALID,-0.305655,VALID,19.8764,VALID,64,VALID,0.880208,
2006-04-27, 03:36:00,VALID,917.203,VALID,0,VALID,100,VALID,-0.271693,VALID,19.4801,VALID,41,VALID,1.24146,
2006-04-27, 03:37:00,VALID,917.216,VALID,0,VALID,100,VALID,-0.305655,VALID,20.2378,VALID,41,VALID,1.03634,
2006-04-27, 03:38:00,VALID,917.213,VALID,0,VALID,100,VALID,-0.288674,VALID,19.8264,VALID,53,VALID,1.05313,
2006-04-27, 03:39:00,VALID,917.203,VALID,0,VALID,100,VALID,-0.254712,VALID,19.3177,VALID,57,VALID,0.982279,